KQ4LLM Weather Reports


time (UTC)temp
C
wind
direction
speed
KPH
gust
KPH
rain 1hr
cm
rain 24hr
cm
rain mn
cm
humidity
%
barometer
mb
20260505184148 25 127 1.6 4.8 0.00 0.00 0.00 38
20260505183645 25 135 0.0 3.2 0.00 0.00 0.00 41
20260505183143 25 129 3.2 3.2 0.00 0.00 0.00 40
20260505182638 25 149 1.6 3.2 0.00 0.00 0.00 37
20260505182136 25 149 1.6 3.2 0.00 0.00 0.00 39
20260505181632 25 142 1.6 3.2 0.00 0.00 0.00 36
20260505181130 25 156 3.2 4.8 0.00 0.00 0.00 39
20260505180626 25 161 1.6 3.2 0.00 0.00 0.00 40
20260505180123 25 133 1.6 4.8 0.00 0.00 0.00 39
20260505175619 25 107 1.6 3.2 0.00 0.00 0.00 40
20260505175116 25 184 4.8 4.8 0.00 0.00 0.00 41
20260505174612 25 184 3.2 4.8 0.00 0.00 0.00 38
20260505174108 25 137 1.6 9.7 0.00 0.00 0.00 40
20260505173605 25 125 3.2 4.8 0.00 0.00 0.00 39
20260505173102 25 155 1.6 3.2 0.00 0.00 0.00 40
20260505172600 24 195 3.2 4.8 0.00 0.00 0.00 37
20260505172056 24 199 3.2 4.8 0.00 0.00 0.00 38
20260505171551 25 213 4.8 6.4 0.00 0.00 0.00 39
20260505171048 24 134 0.0 3.2 0.00 0.00 0.00 40
20260505170545 24 147 1.6 3.2 0.00 0.00 0.00 41
20260505170041 23 108 3.2 4.8 0.00 0.00 0.00 42
20260505165536 24 89 3.2 4.8 0.00 0.00 0.00 41
20260505165032 23 148 3.2 4.8 0.00 0.00 0.00 42
20260505164528 23 142 3.2 4.8 0.00 0.00 0.00 40
20260505164026 23 182 1.6 3.2 0.00 0.00 0.00 40
20260505163525 23 125 4.8 4.8 0.00 0.00 0.00 45
20260505163021 23 164 1.6 3.2 0.00 0.00 0.00 50
20260505162515 22 137 0.0 1.6 0.00 0.00 0.00 47
20260505162012 22 107 1.6 1.6 0.00 0.00 0.00 49
20260505161508 22 141 1.6 3.2 0.00 0.00 0.00 51
20260505161006 22 136 0.0 3.2 0.00 0.00 0.00 48
20260505160503 22 124 1.6 3.2 0.00 0.00 0.00 49
20260505152940 21 141 1.6 3.2 0.00 0.00 0.00 53
20260505152437 21 142 1.6 3.2 0.00 0.00 0.00 54
20260505151938 21 141 1.6 3.2 0.00 0.00 0.00 54
20260505151433 21 129 0.0 3.2 0.00 0.00 0.00 56
20260505150931 21 148 1.6 4.8 0.00 0.00 0.00 54
20260505150428 21 134 1.6 1.6 0.00 0.00 0.00 57
20260505140358 18 136 1.6 1.6 0.00 0.00 0.00 67
20260505124811 15 150 3.2 3.2 0.00 0.00 0.00 79
20260505124308 15 144 0.0 0.0 0.00 0.00 0.00 80
20260505123804 15 137 0.0 3.2 0.00 0.00 0.00 80
20260505123301 15 128 0.0 3.2 0.00 0.00 0.00 81
20260505122757 14 147 0.0 0.0 0.00 0.00 0.00 81
20260505122255 14 137 0.0 0.0 0.00 0.00 0.00 81
20260505121751 13 141 0.0 0.0 0.00 0.00 0.00 81
20260505121248 13 140 0.0 0.0 0.00 0.00 0.00 82
20260505120744 13 134 0.0 0.0 0.00 0.00 0.00 83
20260505120240 13 132 0.0 0.0 0.00 0.00 0.00 84
20260505115739 12 131 0.0 0.0 0.00 0.00 0.00 86
20260505115237 12 131 0.0 0.0 0.00 0.00 0.00 86
20260505114734 12 131 0.0 0.0 0.00 0.00 0.00 86
20260505114230 12 131 0.0 0.0 0.00 0.00 0.00 86
20260505113727 12 131 0.0 0.0 0.00 0.00 0.00 86
20260505113223 12 131 0.0 0.0 0.00 0.00 0.00 86
20260505112720 12 131 0.0 0.0 0.00 0.00 0.00 85
20260505112218 12 131 0.0 0.0 0.00 0.00 0.00 84
20260505111717 12 129 0.0 1.6 0.00 0.00 0.00 85
20260505111214 12 128 1.6 1.6 0.00 0.00 0.00 85
20260505110709 12 128 1.6 1.6 0.00 0.00 0.00 87
20260505110207 11 128 0.0 1.6 0.00 0.00 0.00 89
20260505102143 11 128 0.0 0.0 0.00 0.00 0.00 90
20260505101641 11 128 0.0 0.0 0.00 0.00 0.00 89
20260505101137 11 128 0.0 0.0 0.00 0.00 0.00 89
20260505100633 11 127 0.0 0.0 0.00 0.00 0.00 89
20260505100130 11 128 0.0 0.0 0.00 0.00 0.00 89
20260505095626 11 129 0.0 0.0 0.00 0.00 0.00 89
20260505095124 11 129 0.0 0.0 0.00 0.00 0.00 89
20260505094620 11 128 0.0 0.0 0.00 0.00 0.00 88
20260505094116 11 128 0.0 0.0 0.00 0.00 0.00 88
20260505093612 11 128 0.0 0.0 0.00 0.00 0.00 87
20260505093110 11 128 0.0 0.0 0.00 0.00 0.00 87
20260505092607 11 128 0.0 0.0 0.00 0.00 0.00 86
20260505092106 11 128 0.0 0.0 0.00 0.00 0.00 85
20260505091602 11 128 0.0 0.0 0.00 0.00 0.00 85
20260505091100 11 128 0.0 0.0 0.00 0.00 0.00 85
20260505090558 11 129 0.0 0.0 0.00 0.00 0.00 85
20260505090055 11 120 0.0 0.0 0.00 0.00 0.00 85
20260505085553 11 120 0.0 0.0 0.00 0.00 0.00 85
20260505085051 11 120 0.0 0.0 0.00 0.00 0.00 85
20260505084549 11 120 0.0 0.0 0.00 0.00 0.00 85
20260505084047 11 120 0.0 0.0 0.00 0.00 0.00 84
20260505083544 11 120 0.0 0.0 0.00 0.00 0.00 84
20260505083040 11 120 0.0 0.0 0.00 0.00 0.00 83
20260505082536 11 120 0.0 0.0 0.00 0.00 0.00 83
20260505082033 11 119 0.0 0.0 0.00 0.00 0.00 82
20260505081529 11 120 0.0 0.0 0.00 0.00 0.00 82
20260505081027 11 119 0.0 0.0 0.00 0.00 0.00 82
20260505080523 11 119 0.0 0.0 0.00 0.00 0.00 82
20260505080020 11 119 0.0 0.0 0.00 0.00 0.00 82
20260505075516 11 119 0.0 0.0 0.00 0.00 0.00 82
20260505075013 11 119 0.0 0.0 0.00 0.00 0.00 81
20260505074510 11 119 0.0 0.0 0.00 0.00 0.00 81
20260505074007 11 120 0.0 0.0 0.00 0.00 0.00 78
20260505073504 11 119 0.0 0.0 0.00 0.00 0.00 78
20260505073002 11 119 0.0 0.0 0.00 0.00 0.00 79
20260505072458 11 119 0.0 0.0 0.00 0.00 0.00 78
20260505071954 11 119 0.0 0.0 0.00 0.00 0.00 78
20260505071450 11 119 0.0 0.0 0.00 0.00 0.00 77
20260505070948 11 119 0.0 0.0 0.00 0.00 0.00 77
20260505070445 12 119 0.0 0.0 0.00 0.00 0.00 78
20260505065940 12 119 0.0 0.0 0.00 0.00 0.00 78
20260505065437 12 119 0.0 0.0 0.00 0.00 0.00 75
20260505064933 12 119 0.0 0.0 0.00 0.00 0.00 75
20260505064431 12 119 0.0 0.0 0.00 0.00 0.00 73
20260505063929 12 119 0.0 0.0 0.00 0.00 0.00 75
20260505063425 12 119 0.0 0.0 0.00 0.00 0.00 74
20260505062922 12 119 0.0 0.0 0.00 0.00 0.00 73
20260505062419 12 119 0.0 0.0 0.00 0.00 0.00 72
20260505061915 12 119 0.0 1.6 0.00 0.00 0.00 74
20260505061414 12 137 0.0 0.0 0.00 0.00 0.00 73
20260505060911 12 137 0.0 0.0 0.00 0.00 0.00 73
20260505060408 12 137 0.0 1.6 0.00 0.00 0.00 72
20260505055904 12 127 0.0 0.0 0.00 0.00 0.00 72
20260505055400 12 127 0.0 0.0 0.00 0.00 0.00 74
20260505054857 13 127 0.0 0.0 0.00 0.00 0.00 74
20260505054354 13 127 0.0 0.0 0.00 0.00 0.00 73
20260505053853 13 127 0.0 0.0 0.00 0.00 0.00 72
20260505053350 13 127 0.0 0.0 0.00 0.00 0.00 71
20260505052846 13 127 0.0 0.0 0.00 0.00 0.00 71
20260505052343 13 127 0.0 0.0 0.00 0.00 0.00 72
20260505051840 13 127 0.0 0.0 0.00 0.00 0.00 74
20260505051337 13 127 0.0 0.0 0.00 0.00 0.00 73
20260505050835 13 127 0.0 0.0 0.00 0.00 0.00 73
20260505050334 13 127 0.0 0.0 0.00 0.00 0.00 71
20260505041758 14 127 0.0 0.0 0.00 0.00 0.00 68
20260505041255 15 127 0.0 0.0 0.00 0.00 0.00 69
20260505040753 15 127 0.0 0.0 0.00 0.00 0.00 66
20260505040250 15 127 0.0 0.0 0.00 0.00 0.00 65
20260505035747 15 127 0.0 0.0 0.00 0.00 0.00 63
20260505035243 15 127 0.0 0.0 0.00 0.00 0.00 65
20260505034740 15 127 0.0 0.0 0.00 0.00 0.00 62
20260505034237 15 127 0.0 0.0 0.00 0.00 0.00 64
20260505033733 15 127 0.0 0.0 0.00 0.00 0.00 61
20260505033231 16 127 0.0 0.0 0.00 0.00 0.00 61
20260505032728 16 127 0.0 0.0 0.00 0.00 0.00 60
20260505032224 16 127 0.0 0.0 0.00 0.00 0.00 60
20260505031721 16 127 0.0 0.0 0.00 0.00 0.00 59
20260505031218 16 127 0.0 0.0 0.00 0.00 0.00 59
20260505030715 16 127 0.0 0.0 0.00 0.00 0.00 58
20260505030206 16 127 0.0 0.0 0.00 0.00 0.00 58
20260505025701 16 127 0.0 0.0 0.00 0.00 0.00 58
20260505025200 16 127 0.0 0.0 0.00 0.00 0.00 59
20260505024658 16 127 0.0 0.0 0.00 0.00 0.00 58
20260505024154 16 127 0.0 0.0 0.00 0.00 0.00 57
20260505023652 16 127 0.0 0.0 0.00 0.00 0.00 57
20260505023149 16 127 0.0 0.0 0.00 0.00 0.00 57
20260505022646 16 127 0.0 0.0 0.00 0.00 0.00 57
20260505022143 16 127 0.0 0.0 0.00 0.00 0.00 57
20260505021640 16 127 0.0 0.0 0.00 0.00 0.00 57
20260505021137 16 127 0.0 0.0 0.00 0.00 0.00 59
20260505020632 16 127 0.0 0.0 0.00 0.00 0.00 58
20260505020128 17 127 0.0 0.0 0.00 0.00 0.00 62
20260505015625 17 127 0.0 0.0 0.00 0.00 0.00 56
20260505015122 17 127 0.0 0.0 0.00 0.00 0.00 56
20260505014619 17 127 0.0 0.0 0.00 0.00 0.00 58
20260505014116 17 127 0.0 0.0 0.00 0.00 0.00 55
20260505013614 17 127 0.0 0.0 0.00 0.00 0.00 55
20260505013110 17 127 0.0 0.0 0.00 0.00 0.00 55
20260505012609 17 127 0.0 0.0 0.00 0.00 0.00 53
20260505012105 17 127 0.0 0.0 0.00 0.00 0.00 54
20260505011600 18 127 0.0 0.0 0.00 0.00 0.00 52
20260505011058 18 127 0.0 0.0 0.00 0.00 0.00 54
20260505010553 18 127 0.0 0.0 0.00 0.00 0.00 52
20260505010050 18 127 0.0 0.0 0.00 0.00 0.00 50
20260505005546 18 127 0.0 0.0 0.00 0.00 0.00 50
20260505005044 18 127 0.0 0.0 0.00 0.00 0.00 49
20260505004540 18 128 0.0 0.0 0.00 0.00 0.00 49
20260505004037 19 128 0.0 0.0 0.00 0.00 0.00 49
20260505003535 19 128 0.0 0.0 0.00 0.00 0.00 47
20260505003032 20 128 0.0 0.0 0.00 0.00 0.00 47
20260505002532 20 128 0.0 0.0 0.00 0.00 0.00 46
20260505002032 20 128 0.0 0.0 0.00 0.00 0.00 45
20260505001528 20 128 0.0 0.0 0.00 0.00 0.00 45
20260505001025 20 128 0.0 0.0 0.00 0.00 0.00 44
20260505000523 20 128 0.0 0.0 0.00 0.00 0.00 43
20260505000020 21 127 0.0 0.0 0.00 0.00 0.00 42
20260504235517 21 128 0.0 0.0 0.00 0.00 0.00 43
20260504235013 21 128 0.0 0.0 0.00 0.00 0.00 42
20260504234510 21 128 0.0 0.0 0.00 0.00 0.00 42
20260504234007 21 129 0.0 0.0 0.00 0.00 0.00 43
20260504233502 21 129 0.0 0.0 0.00 0.00 0.00 42
20260504233000 22 129 0.0 0.0 0.00 0.00 0.00 41
20260504232457 22 129 0.0 1.6 0.00 0.00 0.00 41
20260504231954 22 132 0.0 1.6 0.00 0.00 0.00 41
20260504231450 22 129 0.0 1.6 0.00 0.00 0.00 40
20260504230947 22 134 0.0 0.0 0.00 0.00 0.00 39
20260504230443 23 157 1.6 3.2 0.00 0.00 0.00 38
20260504225943 23 165 3.2 3.2 0.00 0.00 0.00 37
20260504225439 22 138 0.0 1.6 0.00 0.00 0.00 38
20260504224936 23 139 1.6 1.6 0.00 0.00 0.00 38
20260504224432 23 126 0.0 1.6 0.00 0.00 0.00 37
20260504223930 23 123 1.6 3.2 0.00 0.00 0.00 38
20260504223425 23 136 0.0 3.2 0.00 0.00 0.00 37
20260504222921 23 140 0.0 4.8 0.00 0.00 0.00 38
20260504222419 23 141 0.0 1.6 0.00 0.00 0.00 37
20260504221917 23 125 1.6 3.2 0.00 0.00 0.00 36
20260504221413 23 138 1.6 4.8 0.00 0.00 0.00 35
20260504220911 24 132 1.6 3.2 0.00 0.00 0.00 32
20260504220407 24 101 3.2 4.8 0.00 0.00 0.00 30
20260504215904 24 144 0.0 1.6 0.00 0.00 0.00 35
20260504215401 24 135 0.0 1.6 0.00 0.00 0.00 31
20260504214857 23 141 0.0 3.2 0.00 0.00 0.00 31
20260504214354 23 140 1.6 1.6 0.00 0.00 0.00 32
20260504213851 24 133 0.0 3.2 0.00 0.00 0.00 32
20260504213346 24 141 0.0 1.6 0.00 0.00 0.00 34
20260504212844 24 141 0.0 1.6 0.00 0.00 0.00 39
20260504212340 24 134 0.0 1.6 0.00 0.00 0.00 38
20260504211838 24 137 0.0 0.0 0.00 0.00 0.00 35
20260504211334 24 138 0.0 1.6 0.00 0.00 0.00 34
20260504210831 25 142 0.0 4.8 0.00 0.00 0.00 32
20260504210328 24 198 1.6 3.2 0.00 0.00 0.00 34
20260504205825 25 138 0.0 3.2 0.00 0.00 0.00 32
20260504205323 25 142 1.6 1.6 0.00 0.00 0.00 35
20260504204821 25 133 3.2 4.8 0.00 0.00 0.00 33
20260504204319 25 139 0.0 1.6 0.00 0.00 0.00 33
20260504203818 25 132 0.0 1.6 0.00 0.00 0.00 33
20260504203315 25 141 1.6 1.6 0.00 0.00 0.00 36
20260504202810 25 138 0.0 1.6 0.00 0.00 0.00 34
20260504202308 25 138 0.0 1.6 0.00 0.00 0.00 32
20260504201804 25 138 0.0 4.8 0.00 0.00 0.00 31
20260504201302 25 139 0.0 3.2 0.00 0.00 0.00 31
20260504200759 25 144 1.6 1.6 0.00 0.00 0.00 31
20260504200255 25 133 1.6 3.2 0.00 0.00 0.00 31
20260504195752 25 146 0.0 4.8 0.00 0.00 0.00 30
20260504195248 26 144 1.6 3.2 0.00 0.00 0.00 35
20260504194745 25 139 0.0 1.6 0.00 0.00 0.00 32
20260504194241 25 141 3.2 3.2 0.00 0.00 0.00 32
20260504193737 25 142 3.2 3.2 0.00 0.00 0.00 30
20260504193235 25 144 0.0 4.8 0.00 0.00 0.00 33
20260504192733 25 135 3.2 3.2 0.00 0.00 0.00 31
20260504192231 26 154 3.2 3.2 0.00 0.00 0.00 29
20260504191729 25 137 0.0 1.6 0.00 0.00 0.00 32
20260504191226 25 133 1.6 3.2 0.00 0.00 0.00 30
20260504190721 25 151 1.6 3.2 0.00 0.00 0.00 31
20260504190218 25 143 1.6 3.2 0.00 0.00 0.00 32
20260504185714 25 135 3.2 3.2 0.00 0.00 0.00 30
20260504185211 25 157 1.6 3.2 0.00 0.00 0.00 34
20260504184707 24 123 3.2 3.2 0.00 0.00 0.00 33